Location: ?
(35.8377°N, 139.6915°E)
Time: 02:54:13
(UTC+00:00)

Daily predictions for brighter satellites

Satellite Brightness Start Highest point End
(mag) Time Altitude Azimuth Time Altitude Azimuth Time Altitude Azimuth
Cosmos 1980 Rocket 3.4 10:10:52 10° SE 10:14:48 20° E 10:18:46 10° NE
Cosmos 2061 Rocket 4.3 10:09:59 10° S 10:16:11 77° W 10:22:23 10° N
OAO 3 Rocket 3.3 10:12:47 10° W 10:17:42 82° S 10:22:39 10° E
Sich 1 3.0 10:15:14 10° N 10:19:37 80° E 10:23:55 10° S
SJ-6B 2.8 10:17:25 10° SSE 10:21:12 61° ENE 10:24:55 10° N
Cosmos 1315 Rocket 3.5 10:19:26 10° N 10:23:11 36° ENE 10:26:52 10° SE
CZ-3A R/B 4.4 10:19:21 10° SW 10:23:15 29° S 10:36:06 10° ESE
Cosmos 1340 4.3 10:21:45 10° SE 10:24:12 17° E 10:26:40 10° NE
NOSS 3-2 (C) 4.4 10:16:56 10° NNW 10:24:42 63° NE 10:33:24 10° SE
Resurs 01 Rocket 3.1 10:24:12 10° ESE 10:27:32 22° ENE 10:30:53 10° NNE
Gbstr 26 Del rocket 4.2 10:22:29 10° NW 10:30:02 86° SW 10:36:04 11° SE
CENTAUR R/B 3.5 10:23:35 10° NNW 10:32:09 83° WSW 10:41:14 10° SSE
CZ-4B R/B 2.3 10:30:38 10° NE 10:33:21 26° E 10:36:00 10° SSE
Cosmos 1697 Rocket 2.7 10:27:54 10° S 10:33:29 65° ESE 10:39:06 10° NNE
BREEZE-M DEB (TANK) 4.1 10:30:18 10° SW 10:35:05 82° NW 10:47:24 10° NE
Cosmos 1570 Rocket 4.0 10:31:00 10° NNW 10:36:14 70° ENE 10:41:28 10° SSE
Cosmos 2360 4.2 10:32:00 10° S 10:37:36 66° ESE 10:43:15 10° NNE
Cosmos 1743 4.5 10:36:04 10° NE 10:38:28 16° ENE 10:40:12 12° ESE
Cosmos 1666 4.2 10:35:21 10° NNW 10:38:53 38° W 10:42:22 10° SSW
Okean-O 3.1 10:34:46 10° S 10:39:08 63° WSW 10:43:32 10° NNW
Cosmos 1486 Rocket 4.1 10:34:22 10° S 10:39:32 57° ESE 10:44:43 10° NNE
Cosmos 1814 Rocket 4.1 10:35:35 10° NNW 10:40:43 77° WSW 10:45:50 10° S
IGS 5A 3.4 10:40:40 10° SSE 10:44:48 80° ENE 10:48:58 10° N
USA 238 DEB 4.0 10:37:24 10° NNW 10:44:51 80° ENE 10:51:58 13° SE
USA 238 4.0 10:37:31 10° NNW 10:44:58 79° ENE 10:52:03 13° SE
OBJECT-B 3.0 10:43:00 10° SSW 10:45:21 22° W 10:47:43 10° NW
USA 186 3.0 10:43:13 10° SSW 10:45:26 28° W 10:47:33 10° NW
SL-12 R/B (Aux Motor) 3.9 10:41:27 10° SW 10:45:36 73° SSE 10:47:37 10° ENE
Cosmos 2297 Rocket 2.2 10:41:52 10° NNW 10:47:34 78° ENE 10:52:46 12° SSE
PSLV R/B 3.9 10:43:48 10° NNE 10:47:49 62° E 10:51:47 10° S
SL-16 R/B 4.1 11:02:49 11° E 11:02:49 11° E 11:03:57 10° E
Meteor 1-10 Rocket 4.5 10:56:51 10° SSW 11:02:21 72° W 11:07:56 10° N
MetOp-A 4.3 11:00:09 10° S 11:04:06 46° W 11:07:52 10° NNW
H-2A R/B 2.6 11:03:13 10° N 11:07:13 56° WNW 11:11:15 10° SSW
Okean 1 4.4 11:07:00 23° ESE 11:07:58 26° E 11:11:18 10° NNE
Cosmos 1503 Rocket 4.0 11:03:35 10° S 11:08:44 62° ESE 11:13:58 10° NNE
Cosmos 1328 Rocket 4.4 11:05:02 10° SSW 11:09:13 51° W 11:13:26 10° N
RESURS DK-1 3.1 11:08:11 24° SSE 11:09:46 32° ESE 11:13:27 10° NE
Cosmos 1536 3.1 11:06:15 10° N 11:10:11 50° E 11:12:06 26° SE
Meteor 1-27 Rocket 3.7 11:06:17 10° S 11:12:00 84° E 11:17:53 10° N
SL-4 R/B 3.0 11:12:54 10° NW 11:17:14 42° NE 11:19:28 23° E
SPOT 1/Viking Rocket 3.5 11:16:35 23° SSE 11:19:51 69° ENE 11:25:00 10° N
Cosmos 2278 3.9 11:17:12 13° S 11:22:01 48° ESE 11:27:26 10° NNE
ASTRO E2 3.4 11:21:22 10° WSW 11:24:56 34° S 11:25:31 33° S
Cosmos 2219 3.2 11:20:30 10° NNW 11:26:08 84° WSW 11:29:32 25° SSE
Meteor 1-11 Rocket 4.0 11:25:12 10° NNW 11:31:11 75° W 11:35:39 18° S
Cosmos 2082 3.9 11:27:42 10° NNW 11:33:13 55° ENE 11:35:35 32° SE
Cosmos 2263 Rocket 3.4 11:32:23 10° N 11:37:09 28° ENE 11:39:01 23° E
CZ-2C R/B 4.5 11:33:42 10° NNE 11:38:03 34° E 11:38:21 34° ESE
Cosmos 1933 Rocket 3.5 11:34:08 10° N 11:38:37 82° E 11:40:15 39° SSE
Cosmos 1809 Rocket 4.5 11:34:56 10° N 11:41:02 64° E 11:43:49 33° SSE
Ariane Rocket 3.0 11:39:09 28° S 11:41:52 77° WSW 11:46:58 10° NNW
ATLAS 2AS CENTAUR R/B 3.0 11:34:18 10° SSW 11:42:09 89° ESE 11:49:51 10° NNE
Helios 1A Rocket 3.5 11:42:13 38° E 11:42:35 39° ENE 11:46:19 10° N
SJ 16-02 1.3 11:44:08 24° SSW 11:46:43 84° WNW 11:51:07 10° NNE
Cosmos 1184 Rocket 4.4 11:46:01 18° SW 11:47:37 30° WNW 11:50:20 10° NNW
Cosmos 1464 Rocket 4.4 11:41:32 10° SSW 11:47:39 61° W 11:53:46 10° N
SPOT 5 3.5 11:50:27 39° ESE 11:51:46 47° ENE 11:56:45 10° N
Cosmos 389 Rocket 3.1 11:50:34 10° NNW 11:53:58 49° W 11:54:33 44° SW
Cosmos 2227 Rocket 3.2 11:49:15 10° NW 11:54:32 41° WSW 11:57:43 22° SSW
Terra 2.7 11:54:41 31° E 11:55:09 32° ENE 11:59:21 10° N
